contact:dominique.lefevre@mio.osupytheas.fr, maurice.libes@osupytheas.fr, didier.mallarino@osupytheas.fr
Project:EMSO http://www.emso-fr.org/EMSO-France
Depth: 2436.0 m
Title:EMSO Ligure Ouest : Data MII capteur AQUADOPP
Date,Latitude,Longitude,X_East,Y_North,Z_Up,Amplitude_X,Amplitude_Y,Amplitude_Z,Batterie,SoundSpeed,Heading,Pitch,Roll,Pressure,TIS,Speed,Direction
, degrees North, degrees East, m.s-1, m.s-1,m.s-1, 1, 1, 1, Volt, m.s-1, degree, degree, degree, dbar, degree_C, m.s-1, degree
2022-01-31T00:04:03,42.805,6.029,0.002,-0.047,-0.038,105.0,104.0,102.0,13.4,1505.2,330.8,-0.7,1.8,2469.671,13.28,0.047,177.6
2022-01-31T00:07:03,42.805,6.029,0.006,-0.021,-0.025,105.0,103.0,103.0,13.4,1505.2,327.6,-0.7,1.8,2469.621,13.28,0.021,164.1
2022-01-31T00:10:03,42.805,6.029,0.038,-0.027,-0.026,104.0,103.0,102.0,13.3,1505.2,330.4,-0.8,1.8,2469.609,13.28,0.046,125.4
2022-01-31T00:13:03,42.805,6.029,0.024,-0.03,-0.018,103.0,104.0,102.0,13.3,1505.2,326.5,-0.8,1.8,2469.557,13.28,0.038,141.3
2022-01-31T00:16:03,42.805,6.029,0.0,-0.03,-0.012,104.0,104.0,102.0,13.4,1505.2,329.0,-0.8,1.8,2469.582,13.28,0.03,180.0
2022-01-31T00:19:03,42.805,6.029,0.044,-0.03,-0.024,105.0,103.0,102.0,13.3,1505.2,326.3,-0.8,1.8,2469.512,13.28,0.053,124.3
2022-01-31T00:22:03,42.805,6.029,0.014,-0.004,0.007,104.0,104.0,102.0,13.4,1505.2,327.7,-0.8,1.8,2469.457,13.28,0.014,105.9
2022-01-31T00:25:03,42.805,6.029,0.01,-0.015,-0.025,103.0,104.0,104.0,13.4,1505.2,330.8,-0.8,1.8,2469.441,13.28,0.018,146.3
2022-01-31T00:28:03,42.805,6.029,0.021,-0.025,-0.028,105.0,103.0,103.0,13.4,1505.2,328.4,-0.7,1.8,2469.394,13.28,0.032,140.0
2022-01-31T00:31:03,42.805,6.029,0.0,-0.037,-0.01,104.0,104.0,103.0,13.3,1505.2,326.5,-0.8,1.8,2469.38,13.28,0.037,180.0
2022-01-31T00:34:03,42.805,6.029,0.023,-0.03,0.006,104.0,106.0,103.0,13.3,1505.2,327.1,-0.8,1.8,2469.339,13.28,0.037,142.5
2022-01-31T00:37:03,42.805,6.029,0.025,-0.048,-0.021,104.0,104.0,102.0,13.4,1505.2,327.8,-0.8,1.8,2469.317,13.28,0.054,152.5
2022-01-31T00:40:03,42.805,6.029,0.03,-0.021,-0.038,105.0,103.0,102.0,13.4,1505.2,323.2,-0.7,1.8,2469.281,13.28,0.036,125.0
2022-01-31T00:43:03,42.805,6.029,0.035,-0.055,-0.02,107.0,104.0,101.0,13.3,1505.2,326.3,-0.7,1.8,2469.221,13.28,0.065,147.5
2022-01-31T00:46:03,42.805,6.029,0.026,-0.067,-0.026,104.0,104.0,103.0,13.4,1505.2,327.5,-0.8,1.8,2469.191,13.28,0.071,158.8
2022-01-31T00:49:03,42.805,6.029,0.023,-0.027,-0.009,104.0,104.0,104.0,13.4,1505.2,330.9,-0.8,1.8,2469.096,13.28,0.035,139.6
2022-01-31T00:52:03,42.805,6.029,0.006,-0.028,-0.012,104.0,104.0,102.0,13.4,1505.2,330.5,-0.7,1.8,2469.006,13.28,0.028,167.9
2022-01-31T00:55:03,42.805,6.029,0.02,-0.016,0.007,104.0,104.0,102.0,13.4,1505.2,327.3,-0.8,1.8,2468.989,13.28,0.025,128.7
2022-01-31T00:58:03,42.805,6.029,0.035,-0.034,0.001,104.0,104.0,102.0,13.3,1505.2,326.7,-0.8,1.8,2469.073,13.28,0.048,134.2
2022-01-31T01:04:03,42.805,6.029,-0.006,-0.027,-0.014,105.0,105.0,104.0,13.4,1505.2,329.7,-0.8,1.8,2469.051,13.28,0.027,192.5
2022-01-31T01:07:03,42.805,6.029,-0.014,-0.026,-0.023,105.0,105.0,103.0,13.3,1505.2,327.5,-0.7,1.8,2469.012,13.28,0.029,208.3
2022-01-31T01:10:03,42.805,6.029,0.035,-0.032,-0.015,104.0,104.0,102.0,13.4,1505.2,325.7,-0.7,1.8,2468.968,13.28,0.047,132.4
2022-01-31T01:13:03,42.805,6.029,0.025,-0.034,-0.017,104.0,105.0,102.0,13.4,1505.2,325.5,-0.7,1.8,2469.005,13.28,0.042,143.7
2022-01-31T01:16:03,42.805,6.029,0.04,-0.026,-0.012,106.0,104.0,102.0,13.4,1505.2,326.8,-0.7,1.8,2469.02,13.28,0.047,123.0
2022-01-31T01:19:03,42.805,6.029,0.008,-0.038,-0.007,107.0,105.0,100.0,13.4,1505.2,327.2,-0.8,1.8,2469.001,13.28,0.038,168.1
2022-01-31T01:22:03,42.805,6.029,0.025,-0.049,0.005,106.0,103.0,103.0,13.4,1505.2,329.6,-0.8,1.8,2468.982,13.28,0.055,153.0
2022-01-31T01:25:03,42.805,6.029,0.015,-0.041,-0.034,105.0,104.0,102.0,13.4,1505.2,329.0,-0.8,1.8,2468.968,13.28,0.043,159.9
2022-01-31T01:28:03,42.805,6.029,0.017,-0.04,-0.008,104.0,104.0,103.0,13.4,1505.2,328.0,-0.7,1.9,2468.997,13.28,0.043,157.0
2022-01-31T01:31:03,42.805,6.029,0.025,-0.051,-0.004,106.0,104.0,102.0,13.4,1505.2,326.7,-0.8,1.9,2468.993,13.28,0.056,153.9
2022-01-31T01:34:03,42.805,6.029,0.01,-0.043,-0.013,105.0,103.0,104.0,13.4,1505.2,329.6,-0.7,1.8,2468.914,13.28,0.044,166.9
2022-01-31T01:37:03,42.805,6.029,0.035,-0.036,-0.005,104.0,104.0,102.0,13.4,1505.2,330.5,-0.8,1.8,2468.966,13.28,0.05,135.8
2022-01-31T01:40:03,42.805,6.029,0.01,-0.04,-0.027,104.0,104.0,103.0,13.3,1505.2,325.8,-0.7,1.8,2468.943,13.28,0.041,166.0
2022-01-31T01:43:03,42.805,6.029,0.032,-0.032,-0.013,106.0,104.0,102.0,13.4,1505.2,323.8,-0.8,1.8,2468.895,13.28,0.045,135.0
2022-01-31T01:46:03,42.805,6.029,0.002,-0.023,-0.021,104.0,104.0,102.0,13.3,1505.2,323.9,-0.7,1.8,2468.913,13.28,0.023,175.0
2022-01-31T01:49:03,42.805,6.029,0.035,-0.031,-0.018,104.0,105.0,102.0,13.4,1505.2,329.3,-0.7,1.8,2468.884,13.28,0.046,131.5
2022-01-31T01:52:03,42.805,6.029,0.01,-0.05,-0.027,105.0,104.0,102.0,13.4,1505.2,326.6,-0.7,1.8,2468.853,13.28,0.05,168.7
2022-01-31T01:55:03,42.805,6.029,0.039,-0.033,-0.014,104.0,104.0,102.0,13.4,1505.2,328.9,-0.7,1.8,2468.904,13.28,0.051,130.2
2022-01-31T01:58:03,42.805,6.029,0.027,-0.042,-0.044,104.0,103.0,102.0,13.3,1505.2,330.3,-0.8,1.8,2468.836,13.28,0.049,147.3
2022-01-31T02:04:03,42.805,6.029,0.019,-0.039,0.0,105.0,104.0,102.0,13.4,1505.2,328.5,-0.8,1.8,2468.805,13.28,0.043,154.0
2022-01-31T02:07:03,42.805,6.029,0.021,-0.041,-0.014,104.0,103.0,102.0,13.3,1505.2,326.3,-0.8,1.8,2468.806,13.28,0.046,152.9
2022-01-31T02:10:03,42.805,6.029,0.035,-0.031,-0.018,104.0,103.0,101.0,13.3,1505.2,329.6,-0.8,1.9,2468.778,13.28,0.046,131.5
2022-01-31T02:13:03,42.805,6.029,0.023,-0.013,0.0,106.0,104.0,103.0,13.4,1505.2,323.3,-0.8,1.8,2468.779,13.28,0.026,119.5
2022-01-31T02:16:03,42.805,6.029,0.044,-0.034,-0.014,105.0,105.0,101.0,13.4,1505.2,326.6,-0.8,1.8,2468.744,13.28,0.055,127.7
2022-01-31T02:19:03,42.805,6.029,0.018,-0.023,-0.002,105.0,104.0,101.0,13.4,1505.2,325.4,-0.7,1.8,2468.714,13.28,0.029,142.0
2022-01-31T02:22:03,42.805,6.029,0.002,-0.032,-0.038,105.0,102.0,102.0,13.4,1505.2,330.1,-0.8,1.8,2468.696,13.28,0.032,176.4
2022-01-31T02:25:03,42.805,6.029,0.024,-0.031,-0.019,105.0,104.0,102.0,13.4,1505.2,325.4,-0.8,1.8,2468.723,13.28,0.039,142.3
2022-01-31T02:28:03,42.805,6.029,0.04,-0.041,-0.012,104.0,104.0,102.0,13.4,1505.2,324.3,-0.7,1.8,2468.722,13.28,0.057,135.7
2022-01-31T02:31:03,42.805,6.029,0.018,-0.035,-0.022,104.0,103.0,102.0,13.4,1505.2,331.2,-0.7,1.8,2468.703,13.28,0.039,152.8
2022-01-31T02:34:03,42.805,6.029,0.033,-0.04,-0.009,104.0,104.0,102.0,13.4,1505.2,328.4,-0.8,1.8,2468.756,13.28,0.051,140.5
2022-01-31T02:37:03,42.805,6.029,0.033,-0.023,-0.002,105.0,103.0,102.0,13.4,1505.2,328.9,-0.7,1.8,2468.766,13.28,0.04,124.9
2022-01-31T02:40:03,42.805,6.029,0.026,-0.048,-0.023,104.0,103.0,102.0,13.4,1505.2,328.9,-0.7,1.8,2468.741,13.28,0.054,151.6
2022-01-31T02:43:03,42.805,6.029,0.029,-0.04,-0.012,105.0,102.0,101.0,13.4,1505.2,325.1,-0.8,1.8,2468.742,13.28,0.049,144.1
2022-01-31T02:46:03,42.805,6.029,0.023,-0.041,-0.023,104.0,104.0,100.0,13.4,1505.2,329.4,-0.7,1.8,2468.794,13.28,0.047,150.7
2022-01-31T02:49:03,42.805,6.029,0.032,-0.029,-0.011,103.0,105.0,102.0,13.4,1505.2,326.5,-0.7,1.8,2468.814,13.28,0.043,132.2
2022-01-31T02:52:03,42.805,6.029,0.046,-0.046,-0.019,104.0,103.0,103.0,13.3,1505.2,327.0,-0.8,1.8,2468.834,13.28,0.065,135.0
2022-01-31T02:55:03,42.805,6.029,0.037,-0.044,-0.011,104.0,103.0,102.0,13.4,1505.2,325.3,-0.8,1.8,2468.838,13.28,0.057,139.9
2022-01-31T02:58:03,42.805,6.029,0.034,-0.043,0.01,104.0,103.0,102.0,13.3,1505.2,329.2,-0.8,1.8,2468.885,13.28,0.054,141.7
2022-01-31T03:04:03,42.805,6.029,0.043,-0.032,-0.036,105.0,103.0,103.0,13.3,1505.2,324.8,-0.7,1.8,2468.873,13.28,0.053,126.7
2022-01-31T03:07:03,42.805,6.029,0.055,-0.038,-0.003,104.0,103.0,103.0,13.4,1505.2,329.0,-0.8,1.8,2468.922,13.28,0.066,124.6
2022-01-31T03:10:03,42.805,6.029,0.032,-0.041,-0.002,105.0,104.0,103.0,13.4,1505.2,330.1,-0.7,1.8,2468.94,13.28,0.052,142.0
2022-01-31T03:13:03,42.805,6.029,0.053,-0.037,-0.01,104.0,103.0,102.0,13.3,1505.2,326.0,-0.8,1.8,2468.932,13.28,0.064,124.9
2022-01-31T03:16:03,42.805,6.029,0.032,-0.036,-0.005,105.0,104.0,102.0,13.3,1505.2,328.9,-0.7,1.8,2468.933,13.28,0.048,138.4
2022-01-31T03:19:03,42.805,6.029,0.034,-0.047,-0.001,104.0,105.0,102.0,13.4,1505.2,328.3,-0.7,1.8,2468.946,13.28,0.058,144.1
2022-01-31T03:22:03,42.805,6.029,0.036,-0.029,0.007,105.0,104.0,103.0,13.3,1505.2,324.2,-0.8,1.8,2468.968,13.28,0.046,128.9
2022-01-31T03:25:03,42.805,6.029,0.034,-0.041,0.002,105.0,105.0,103.0,13.3,1505.2,328.0,-0.8,1.8,2468.962,13.28,0.053,140.3
2022-01-31T03:28:03,42.805,6.029,0.075,-0.054,-0.029,104.0,104.0,103.0,13.4,1505.2,327.1,-0.8,1.8,2468.985,13.28,0.092,125.8
2022-01-31T03:31:03,42.805,6.029,0.026,-0.032,-0.027,105.0,104.0,102.0,13.3,1505.2,324.9,-0.8,1.8,2468.993,13.28,0.041,140.9
2022-01-31T03:34:03,42.805,6.029,0.01,-0.035,-0.042,105.0,103.0,102.0,13.3,1505.2,329.1,-0.7,1.8,2468.94,13.28,0.036,164.1
2022-01-31T03:37:03,42.805,6.029,0.034,-0.047,-0.007,104.0,104.0,102.0,13.3,1505.2,327.9,-0.7,1.8,2468.963,13.28,0.058,144.1
2022-01-31T03:40:03,42.805,6.029,0.025,-0.03,0.003,105.0,105.0,102.0,13.4,1505.2,326.9,-0.7,1.8,2468.999,13.28,0.039,140.2
2022-01-31T03:43:03,42.805,6.029,0.033,-0.034,-0.012,104.0,104.0,102.0,13.4,1505.2,325.5,-0.8,1.8,2469.014,13.28,0.047,135.9
2022-01-31T03:46:03,42.805,6.029,0.047,-0.046,0.006,104.0,104.0,103.0,13.3,1505.2,328.0,-0.7,1.8,2469.065,13.28,0.065,134.4
2022-01-31T03:49:03,42.805,6.029,0.041,-0.042,-0.021,104.0,105.0,100.0,13.3,1505.2,327.3,-0.8,1.8,2469.066,13.28,0.058,135.7
2022-01-31T03:52:03,42.805,6.029,0.036,-0.04,-0.03,103.0,103.0,103.0,13.3,1505.2,325.8,-0.7,1.8,2469.105,13.28,0.053,138.0
2022-01-31T03:55:03,42.805,6.029,0.024,-0.063,0.0,104.0,104.0,102.0,13.3,1505.2,330.0,-0.8,1.8,2469.106,13.28,0.067,159.1
2022-01-31T03:58:03,42.805,6.029,0.021,-0.041,-0.018,104.0,104.0,102.0,13.4,1505.2,327.4,-0.8,1.9,2469.179,13.28,0.046,152.9
2022-01-31T04:04:03,42.805,6.029,0.061,-0.06,-0.035,106.0,102.0,103.0,13.3,1505.2,329.3,-0.8,1.8,2469.202,13.28,0.085,134.5
2022-01-31T04:07:03,42.805,6.029,0.049,-0.052,-0.002,104.0,104.0,102.0,13.3,1505.2,323.6,-0.8,1.8,2469.158,13.28,0.071,136.7
2022-01-31T04:10:03,42.805,6.029,0.041,-0.039,0.006,103.0,104.0,103.0,13.4,1505.2,329.1,-0.7,1.8,2469.252,13.28,0.056,133.6
2022-01-31T04:13:03,42.805,6.029,0.048,-0.031,-0.017,105.0,104.0,102.0,13.4,1505.2,330.0,-0.8,1.8,2469.255,13.28,0.057,122.9
2022-01-31T04:16:03,42.805,6.029,0.029,-0.052,0.009,103.0,104.0,103.0,13.4,1505.2,331.2,-0.7,1.9,2469.263,13.28,0.059,150.9
2022-01-31T04:19:03,42.805,6.029,0.043,-0.016,-0.002,105.0,104.0,102.0,13.3,1505.2,331.5,-0.7,1.8,2469.235,13.28,0.045,110.4
2022-01-31T04:22:03,42.805,6.029,0.036,-0.038,-0.015,103.0,104.0,103.0,13.4,1505.2,326.7,-0.7,1.8,2469.25,13.28,0.052,136.5
2022-01-31T04:25:03,42.805,6.029,0.056,-0.032,0.003,104.0,104.0,102.0,13.4,1505.2,328.6,-0.7,1.8,2469.234,13.28,0.064,119.7
2022-01-31T04:28:03,42.805,6.029,0.039,-0.034,-0.016,105.0,104.0,103.0,13.4,1505.2,323.6,-0.8,1.8,2469.258,13.28,0.051,131.1
2022-01-31T04:31:03,42.805,6.029,0.045,-0.04,-0.004,105.0,103.0,102.0,13.4,1505.2,328.6,-0.7,1.8,2469.235,13.28,0.06,131.6
2022-01-31T04:34:03,42.805,6.029,0.032,-0.042,-0.002,105.0,103.0,102.0,13.3,1505.2,325.2,-0.8,1.8,2469.229,13.28,0.052,142.7
2022-01-31T04:37:03,42.805,6.029,0.041,-0.044,-0.001,105.0,104.0,102.0,13.3,1505.2,327.3,-0.8,1.8,2469.241,13.28,0.06,137.0
2022-01-31T04:40:03,42.805,6.029,0.054,-0.025,0.035,104.0,103.0,102.0,13.3,1505.2,329.0,-0.8,1.8,2469.241,13.28,0.059,114.8
2022-01-31T04:43:03,42.805,6.029,0.053,-0.025,-0.029,104.0,105.0,102.0,13.3,1505.2,324.4,-0.8,1.8,2469.261,13.28,0.058,115.3
2022-01-31T04:46:03,42.805,6.029,0.031,-0.03,-0.044,106.0,104.0,102.0,13.4,1505.2,329.1,-0.8,1.8,2469.264,13.28,0.043,134.1
2022-01-31T04:49:03,42.805,6.029,0.03,-0.042,-0.004,104.0,105.0,103.0,13.4,1505.2,326.0,-0.8,1.8,2469.281,13.28,0.051,144.5
2022-01-31T04:52:03,42.805,6.029,0.055,-0.042,-0.006,104.0,103.0,103.0,13.4,1505.2,324.3,-0.8,1.8,2469.311,13.28,0.069,127.4
2022-01-31T04:55:03,42.805,6.029,0.035,-0.037,-0.003,104.0,104.0,102.0,13.4,1505.2,324.2,-0.7,1.8,2469.35,13.28,0.05,136.6
2022-01-31T04:58:03,42.805,6.029,0.06,-0.036,0.011,104.0,104.0,103.0,13.4,1505.2,326.0,-0.8,1.8,2469.431,13.28,0.069,121.0
2022-01-31T05:04:03,42.805,6.029,0.029,-0.048,-0.029,104.0,105.0,102.0,13.4,1505.2,329.7,-0.8,1.8,2469.484,13.28,0.056,148.9
2022-01-31T05:07:03,42.805,6.029,0.042,-0.043,0.002,105.0,104.0,103.0,13.3,1505.2,329.0,-0.8,1.8,2469.476,13.28,0.06,135.7
2022-01-31T05:10:03,42.805,6.029,0.052,-0.056,-0.03,104.0,104.0,102.0,13.4,1505.2,327.3,-0.8,1.8,2469.513,13.28,0.076,137.1
2022-01-31T05:13:03,42.805,6.029,0.04,-0.029,0.012,104.0,104.0,101.0,13.4,1505.2,325.7,-0.8,1.9,2469.54,13.28,0.049,125.9
2022-01-31T05:16:03,42.805,6.029,0.046,-0.072,-0.014,105.0,104.0,102.0,13.3,1505.2,330.0,-0.8,1.9,2469.498,13.28,0.085,147.4
2022-01-31T05:19:03,42.805,6.029,0.038,-0.056,0.007,104.0,104.0,102.0,13.3,1505.2,330.9,-0.8,1.8,2469.523,13.28,0.067,145.8
2022-01-31T05:22:03,42.805,6.029,0.028,-0.065,-0.016,105.0,103.0,102.0,13.4,1505.2,326.5,-0.7,1.8,2469.561,13.28,0.07,156.7
2022-01-31T05:25:03,42.805,6.029,0.048,-0.049,-0.014,104.0,104.0,102.0,13.4,1505.2,326.7,-0.7,1.8,2469.558,13.28,0.068,135.6
2022-01-31T05:28:03,42.805,6.029,0.048,-0.066,-0.017,104.0,104.0,102.0,13.4,1505.2,329.0,-0.8,1.8,2469.579,13.28,0.081,144.0
2022-01-31T05:31:03,42.805,6.029,0.043,-0.054,-0.021,104.0,103.0,103.0,13.3,1505.2,327.7,-0.8,1.8,2469.587,13.28,0.069,141.5
2022-01-31T05:34:03,42.805,6.029,0.02,-0.049,-0.013,104.0,103.0,103.0,13.4,1505.2,326.0,-0.8,1.8,2469.592,13.28,0.052,157.8
2022-01-31T05:37:03,42.805,6.029,0.04,-0.048,-0.044,105.0,103.0,103.0,13.4,1505.2,329.8,-0.7,1.8,2469.567,13.28,0.062,140.2
2022-01-31T05:40:03,42.805,6.029,0.038,-0.034,-0.013,104.0,104.0,102.0,13.4,1505.2,323.8,-0.8,1.8,2469.637,13.28,0.05,131.8
2022-01-31T05:43:03,42.805,6.029,0.044,-0.055,-0.027,104.0,104.0,102.0,13.3,1505.2,329.1,-0.8,1.8,2469.588,13.28,0.07,141.3
2022-01-31T05:46:03,42.805,6.029,0.037,-0.068,-0.008,105.0,104.0,103.0,13.4,1505.2,329.9,-0.7,1.8,2469.616,13.28,0.077,151.4
2022-01-31T05:49:03,42.805,6.029,0.041,-0.055,-0.019,104.0,104.0,103.0,13.3,1505.2,329.0,-0.8,1.8,2469.631,13.28,0.068,143.3
2022-01-31T05:52:03,42.805,6.029,0.022,-0.053,-0.04,104.0,104.0,103.0,13.3,1505.2,326.7,-0.8,1.8,2469.661,13.28,0.057,157.5
2022-01-31T05:55:03,42.805,6.029,0.021,-0.059,-0.032,105.0,104.0,101.0,13.3,1505.2,327.8,-0.8,1.8,2469.672,13.28,0.062,160.4
2022-01-31T05:58:03,42.805,6.029,0.033,-0.059,-0.044,105.0,104.0,103.0,13.4,1505.2,331.7,-0.7,1.8,2469.676,13.28,0.067,150.8
2022-01-31T06:04:03,42.805,6.029,0.028,-0.068,-0.034,104.0,104.0,102.0,13.4,1505.2,326.3,-0.8,1.8,2469.726,13.28,0.073,157.6
2022-01-31T06:07:03,42.805,6.029,0.019,-0.069,-0.018,105.0,103.0,103.0,13.4,1505.2,329.4,-0.8,1.8,2469.72,13.28,0.071,164.6
2022-01-31T06:10:03,42.805,6.029,0.028,-0.048,0.003,106.0,105.0,102.0,13.4,1505.2,328.9,-0.7,1.8,2469.71,13.28,0.055,149.7
2022-01-31T06:13:03,42.805,6.029,0.035,-0.039,-0.02,105.0,103.0,103.0,13.3,1505.2,326.4,-0.8,1.8,2469.74,13.28,0.052,138.1
2022-01-31T06:16:03,42.805,6.029,0.026,-0.047,-0.026,105.0,105.0,102.0,13.4,1505.2,323.8,-0.7,1.8,2469.739,13.28,0.053,151.0
2022-01-31T06:19:03,42.805,6.029,0.04,-0.05,-0.022,104.0,104.0,103.0,13.4,1505.2,328.5,-0.8,1.8,2469.721,13.28,0.064,141.3
2022-01-31T06:22:03,42.805,6.029,0.034,-0.066,-0.007,105.0,105.0,103.0,13.3,1505.2,327.3,-0.7,1.8,2469.731,13.28,0.074,152.7
2022-01-31T06:25:03,42.805,6.029,0.045,-0.042,0.016,105.0,103.0,104.0,13.4,1505.2,326.2,-0.8,1.8,2469.756,13.28,0.061,133.0
2022-01-31T06:28:03,42.805,6.029,0.045,-0.052,-0.01,106.0,104.0,102.0,13.4,1505.2,328.5,-0.7,1.9,2469.733,13.28,0.068,139.1
2022-01-31T06:31:03,42.805,6.029,0.033,-0.047,-0.002,104.0,104.0,103.0,13.4,1505.2,325.8,-0.8,1.8,2469.774,13.28,0.057,144.9
2022-01-31T06:34:03,42.805,6.029,0.034,-0.053,-0.028,104.0,104.0,103.0,13.4,1505.2,324.3,-0.8,1.8,2469.795,13.28,0.062,147.3
2022-01-31T06:37:03,42.805,6.029,0.023,-0.039,-0.003,105.0,105.0,103.0,13.3,1505.2,328.8,-0.8,1.8,2469.78,13.28,0.045,149.5
2022-01-31T06:40:03,42.805,6.029,0.007,-0.039,0.022,105.0,104.0,103.0,13.4,1505.2,326.8,-0.8,1.8,2469.763,13.28,0.039,169.8
2022-01-31T06:43:03,42.805,6.029,0.033,-0.065,-0.028,104.0,105.0,102.0,13.4,1505.2,324.9,-0.8,1.8,2469.774,13.28,0.072,153.1
2022-01-31T06:46:03,42.805,6.029,0.064,-0.069,-0.051,105.0,104.0,102.0,13.4,1505.2,324.0,-0.8,1.8,2469.8,13.28,0.094,137.2
2022-01-31T06:49:03,42.805,6.029,0.025,-0.056,-0.031,105.0,104.0,102.0,13.3,1505.2,329.2,-0.8,1.8,2469.788,13.28,0.061,155.9
2022-01-31T06:52:03,42.805,6.029,0.036,-0.078,-0.03,104.0,104.0,103.0,13.3,1505.2,328.6,-0.7,1.8,2469.775,13.28,0.085,155.2
2022-01-31T06:55:03,42.805,6.029,0.042,-0.08,-0.053,104.0,105.0,102.0,13.4,1505.2,330.5,-0.8,1.8,2469.765,13.28,0.09,152.3
2022-01-31T06:58:03,42.805,6.029,0.036,-0.081,-0.03,104.0,104.0,103.0,13.4,1505.2,326.3,-0.8,1.8,2469.805,13.28,0.088,156.0
2022-01-31T07:04:03,42.805,6.029,0.015,-0.055,-0.033,105.0,106.0,103.0,13.3,1505.2,328.9,-0.8,1.9,2469.868,13.28,0.057,164.7
2022-01-31T07:07:02,42.805,6.029,0.025,-0.055,0.0,105.0,104.0,102.0,13.4,1505.2,328.3,-0.7,1.8,2469.827,13.28,0.06,155.6
2022-01-31T07:10:03,42.805,6.029,0.03,-0.053,0.003,105.0,103.0,103.0,13.4,1505.2,323.9,-0.7,1.8,2469.802,13.28,0.06,150.5
2022-01-31T07:13:03,42.805,6.029,0.027,-0.068,-0.016,105.0,104.0,102.0,13.3,1505.2,329.4,-0.8,1.8,2469.82,13.28,0.073,158.3
2022-01-31T07:16:03,42.805,6.029,0.016,-0.066,-0.01,104.0,105.0,102.0,13.4,1505.2,326.6,-0.7,1.8,2469.804,13.28,0.067,166.4
2022-01-31T07:19:03,42.805,6.029,0.032,-0.071,0.0,104.0,104.0,102.0,13.4,1505.2,331.2,-0.8,1.8,2469.824,13.28,0.077,155.7
2022-01-31T07:22:03,42.805,6.029,0.03,-0.054,-0.009,106.0,103.0,102.0,13.4,1505.2,331.2,-0.8,1.8,2469.811,13.28,0.061,150.9
2022-01-31T07:25:03,42.805,6.029,0.047,-0.046,-0.016,103.0,105.0,101.0,13.4,1505.2,326.0,-0.8,1.8,2469.803,13.28,0.065,134.4
2022-01-31T07:28:03,42.805,6.029,0.022,-0.045,-0.01,104.0,104.0,103.0,13.3,1505.2,328.8,-0.7,1.8,2469.83,13.28,0.05,153.9
2022-01-31T07:31:03,42.805,6.029,0.028,-0.07,-0.019,105.0,103.0,102.0,13.4,1505.2,328.1,-0.8,1.8,2469.853,13.28,0.075,158.2
2022-01-31T07:34:03,42.805,6.029,0.034,-0.065,-0.011,104.0,103.0,102.0,13.3,1505.2,328.2,-0.8,1.8,2469.875,13.28,0.073,152.4
2022-01-31T07:37:03,42.805,6.029,0.0,-0.052,0.011,106.0,103.0,101.0,13.4,1505.2,331.4,-0.7,1.8,2469.893,13.28,0.052,180.0
2022-01-31T07:40:02,42.805,6.029,0.054,-0.063,-0.046,103.0,106.0,101.0,13.4,1505.2,330.5,-0.7,1.8,2469.894,13.28,0.082,139.4
2022-01-31T07:43:03,42.805,6.029,0.034,-0.051,-0.028,106.0,104.0,102.0,13.4,1505.2,327.2,-0.8,1.8,2469.885,13.28,0.061,146.3
2022-01-31T07:46:02,42.805,6.029,0.019,-0.071,-0.03,104.0,103.0,102.0,13.4,1505.2,326.0,-0.7,1.8,2469.864,13.28,0.073,165.0
2022-01-31T07:49:02,42.805,6.029,0.028,-0.06,-0.042,105.0,104.0,101.0,13.3,1505.2,329.9,-0.8,1.8,2469.848,13.28,0.066,155.0
2022-01-31T07:52:02,42.805,6.029,0.01,-0.042,0.002,105.0,103.0,102.0,13.4,1505.2,329.3,-0.7,1.8,2469.92,13.28,0.043,166.6
2022-01-31T07:55:02,42.805,6.029,0.037,-0.046,-0.037,105.0,104.0,103.0,13.4,1505.2,328.4,-0.8,1.8,2469.949,13.28,0.059,141.2
2022-01-31T07:58:02,42.805,6.029,0.011,-0.045,-0.008,104.0,103.0,102.0,13.3,1505.2,329.4,-0.7,1.8,2469.95,13.28,0.046,166.3
2022-01-31T08:04:02,42.805,6.029,0.03,-0.051,-0.007,105.0,105.0,101.0,13.4,1505.2,326.8,-0.7,1.8,2469.986,13.28,0.059,149.5
2022-01-31T08:07:02,42.805,6.029,0.036,-0.065,-0.016,106.0,105.0,101.0,13.3,1505.2,329.1,-0.8,1.8,2469.955,13.28,0.074,151.0
2022-01-31T08:10:02,42.805,6.029,0.036,-0.068,-0.024,104.0,104.0,102.0,13.4,1505.2,326.3,-0.8,1.8,2469.91,13.28,0.076,152.1
2022-01-31T08:13:03,42.805,6.029,0.024,-0.071,-0.046,104.0,104.0,102.0,13.4,1505.2,326.5,-0.8,1.8,2469.987,13.28,0.074,161.3
2022-01-31T08:16:02,42.805,6.029,0.003,-0.046,-0.051,105.0,102.0,103.0,13.3,1505.2,327.5,-0.7,1.8,2469.934,13.28,0.046,176.3
2022-01-31T08:19:02,42.805,6.029,0.018,-0.037,-0.003,106.0,104.0,101.0,13.4,1505.2,324.2,-0.7,1.8,2469.968,13.28,0.041,154.1
2022-01-31T08:22:02,42.805,6.029,0.01,-0.051,-0.003,104.0,104.0,103.0,13.4,1505.2,325.4,-0.8,1.8,2469.92,13.28,0.051,168.9
2022-01-31T08:25:03,42.805,6.029,0.005,-0.063,-0.029,104.0,104.0,102.0,13.3,1505.2,330.6,-0.8,1.8,2469.953,13.28,0.063,175.5
2022-01-31T08:28:02,42.805,6.029,0.029,-0.06,-0.031,104.0,104.0,102.0,13.4,1505.2,326.3,-0.8,1.8,2469.891,13.28,0.066,154.2
2022-01-31T08:31:02,42.805,6.029,0.006,-0.062,-0.029,103.0,104.0,102.0,13.3,1505.2,329.7,-0.7,1.8,2469.871,13.28,0.062,174.5
2022-01-31T08:34:02,42.805,6.029,0.035,-0.071,-0.012,104.0,104.0,102.0,13.3,1505.2,325.7,-0.8,1.8,2469.882,13.28,0.079,153.8
2022-01-31T08:37:02,42.805,6.029,0.004,-0.056,-0.036,103.0,104.0,101.0,13.4,1505.2,325.3,-0.8,1.8,2469.818,13.28,0.056,175.9
2022-01-31T08:40:02,42.805,6.029,0.009,-0.048,-0.049,104.0,104.0,102.0,13.4,1505.2,327.5,-0.8,1.8,2469.822,13.28,0.048,169.4
2022-01-31T08:43:02,42.805,6.029,0.014,-0.054,-0.015,104.0,104.0,102.0,13.4,1505.2,327.8,-0.7,1.9,2469.809,13.28,0.055,165.5
2022-01-31T08:46:03,42.805,6.029,0.01,-0.034,-0.032,104.0,102.0,103.0,13.3,1505.2,328.1,-0.8,1.8,2469.794,13.28,0.035,163.6
2022-01-31T08:49:03,42.805,6.029,0.016,-0.041,-0.027,105.0,103.0,102.0,13.3,1505.2,329.6,-0.7,1.8,2469.752,13.28,0.044,158.7
2022-01-31T08:52:02,42.805,6.029,0.009,-0.041,-0.002,104.0,103.0,101.0,13.3,1505.2,327.5,-0.7,1.8,2469.764,13.28,0.041,167.6
2022-01-31T08:55:02,42.805,6.029,0.037,-0.053,-0.029,104.0,104.0,103.0,13.4,1505.2,323.4,-0.7,1.8,2469.729,13.28,0.064,145.1
2022-01-31T08:58:03,42.805,6.029,0.012,-0.046,-0.011,104.0,103.0,101.0,13.4,1505.2,323.9,-0.7,1.8,2469.719,13.28,0.047,165.4
2022-01-31T09:04:02,42.805,6.029,-0.001,-0.055,-0.04,104.0,103.0,102.0,13.4,1505.2,329.8,-0.7,1.8,2469.742,13.28,0.055,181.0
2022-01-31T09:07:02,42.805,6.029,0.03,-0.064,-0.047,104.0,104.0,102.0,13.4,1505.2,326.9,-0.8,1.7,2469.76,13.28,0.07,154.9
2022-01-31T09:10:03,42.805,6.029,0.015,-0.058,-0.045,103.0,104.0,102.0,13.3,1505.2,328.4,-0.7,1.8,2469.717,13.28,0.059,165.5
2022-01-31T09:13:03,42.805,6.029,-0.016,-0.063,-0.043,104.0,104.0,102.0,13.3,1505.2,324.9,-0.7,1.8,2469.715,13.28,0.064,194.2
2022-01-31T09:16:02,42.805,6.029,0.014,-0.033,-0.036,104.0,104.0,102.0,13.4,1505.2,323.4,-0.7,1.8,2469.693,13.28,0.035,157.0
2022-01-31T09:19:03,42.805,6.029,0.008,-0.052,-0.039,104.0,104.0,102.0,13.4,1505.2,323.3,-0.8,1.9,2469.708,13.28,0.052,171.3
2022-01-31T09:22:02,42.805,6.029,0.006,-0.045,-0.004,103.0,104.0,102.0,13.4,1505.2,328.5,-0.8,1.8,2469.657,13.28,0.045,172.4
2022-01-31T09:25:03,42.805,6.029,-0.006,-0.053,-0.03,105.0,103.0,101.0,13.4,1505.2,326.3,-0.7,1.8,2469.695,13.28,0.053,186.5
2022-01-31T09:28:02,42.805,6.029,-0.037,-0.056,-0.051,105.0,104.0,101.0,13.4,1505.2,327.5,-0.7,1.8,2469.668,13.28,0.067,213.5
2022-01-31T09:31:03,42.805,6.029,0.004,-0.061,-0.021,104.0,103.0,102.0,13.4,1505.2,327.2,-0.8,1.8,2469.702,13.28,0.061,176.3
2022-01-31T09:34:03,42.805,6.029,0.021,-0.061,-0.009,105.0,103.0,102.0,13.3,1505.2,327.1,-0.7,1.8,2469.694,13.28,0.064,161.0
2022-01-31T09:37:02,42.805,6.029,0.003,-0.037,-0.036,103.0,105.0,102.0,13.4,1505.2,328.7,-0.7,1.8,2469.708,13.28,0.037,175.4
2022-01-31T09:40:03,42.805,6.029,0.011,-0.047,-0.022,103.0,102.0,102.0,13.4,1505.2,323.1,-0.8,1.8,2469.698,13.28,0.048,166.8
2022-01-31T09:43:03,42.805,6.029,-0.004,-0.065,-0.018,103.0,103.0,102.0,13.4,1505.2,327.5,-0.8,1.8,2469.715,13.28,0.065,183.5
2022-01-31T09:46:03,42.805,6.029,0.013,-0.054,-0.037,105.0,102.0,102.0,13.4,1505.2,331.7,-0.7,1.8,2469.679,13.28,0.055,166.5
2022-01-31T09:49:03,42.805,6.029,0.02,-0.037,-0.046,103.0,103.0,102.0,13.4,1505.2,325.9,-0.8,1.8,2469.675,13.28,0.042,151.6
2022-01-31T09:52:02,42.805,6.029,0.005,-0.05,-0.033,104.0,103.0,103.0,13.3,1505.2,326.7,-0.7,1.8,2469.696,13.28,0.05,174.3
2022-01-31T09:55:03,42.805,6.029,-0.008,-0.042,0.027,103.0,103.0,102.0,13.4,1505.2,328.0,-0.8,1.8,2469.727,13.28,0.042,190.8